Wind_Speed
4 1 4 7 3 4 6 8 13 16 15 15 11 14 17 19 10 13 26 22 20 18 16 15 15 15 15 15 14 15 15 16 16 16 16 17 19 18 19 19 19 20 19 19 18 17 15 16 17
2 4 2 4 3 4 8 13 17 12 16 16 15 12 20 14 21 30 25 23 20 17 14 13 14 13 13 13 13 13 15 15 16 16 16 18 19 17 19 20 18 19 19 19 18 16 15 16 16
5 5 3 2 2 1 11 11 17 17 18 14 13 13 11 21 25 23 27 24 22 20 16 14 13 11 11 12 12 11 12 13 14 15 16 17 18 19 19 20 20 18 17 17 16 15 15 16 15
2 5 4 2 6 2 9 14 19 22 14 9 17 13 15 19 19 27 26 23 17 15 13 14 11 10 9 9 9 10 11 12 14 14 15 16 17 18 19 18 16 15 15 15 16 16 14 15 16
2 3 1 2 8 4 8 19 21 16 15 13 10 19 24 14 24 25 24 20 22 17 13 13 11 9 9 9 9 10 11 12 13 14 15 16 16 16 18 17 17 18 17 18 17 16 16 16 16
1 4 1 3 8 5 10 13 15 15 14 15 24 23 17 21 25 23 21 20 16 18 16 11 11 10 10 11 10 10 11 12 14 13 15 15 16 15 17 17 18 18 18 18 19 18 17 17 17
3 2 1 4 10 11 4 7 10 14 12 21 16 19 19 24 22 22 20 19 17 14 13 11 9 9 10 11 11 12 12 13 14 14 14 15 16 15 15 16 18 19 18 19 19 18 17 17 17
4 3 4 3 7 5 4 4 2 5 12 15 19 9 23 26 23 21 20 15 16 13 12 13 11 8 11 9 11 12 13 13 14 14 14 15 16 15 15 14 16 16 17 18 18 18 19 18 18
5 4 3 6 8 7 6 6 4 8 12 7 6 22 26 25 23 22 19 16 14 12 14 12 9 13 9 10 10 12 13 14 14 14 16 18 12 12 13 14 17 17 18 18 19 19 17 18 21
6 3 5 6 9 12 9 12 10 12 12 9 20 25 26 24 23 22 21 18 15 12 12 11 14 10 13 10 11 11 13 11 12 11 13 14 16 14 12 15 15 15 17 17 18 17 15 10 8
5 1 2 3 13 20 10 13 14 13 9 18 26 30 26 25 22 20 18 16 15 12 14 13 12 13 10 9 10 11 7 10 13 12 12 13 13 14 10 12 10 9 11 8 10 9 11 9 9
3 3 11 14 20 15 8 7 5 8 9 17 25 27 26 25 22 20 19 17 15 12 12 12 12 7 10 9 12 9 10 10 11 11 12 13 12 11 8 8 8 8 7 9 10 10 9 9 9
6 4 14 16 16 12 7 6 6 9 11 20 25 25 25 23 21 19 18 16 15 13 11 11 11 13 11 16 11 10 13 13 12 11 10 11 10 11 10 7 8 7 6 8 8 9 9 9 8
10 16 18 20 15 7 9 6 3 12 16 24 26 25 23 22 20 18 17 16 15 13 12 12 11 11 12 13 13 11 12 14 13 10 10 12 11 10 10 9 7 6 6 8 5 5 6 7 7
7 18 16 12 7 4 9 3 5 14 22 26 25 24 22 21 19 17 17 16 14 13 12 12 12 11 9 17 13 11 14 12 12 10 12 10 11 8 9 7 10 6 8 7 7 6 6 5 6
13 15 10 11 12 4 1 7 11 18 24 25 24 23 21 19 18 16 16 16 14 14 13 14 12 12 11 13 13 12 13 12 11 11 10 10 10 9 9 8 7 7 6 6 5 6 6 6 5
14 9 16 8 13 7 7 9 11 19 22 24 24 23 21 19 18 17 16 17 15 14 14 14 13 14 12 15 11 13 14 12 12 12 9 8 6 9 5 7 5 8 4 5 5 5 5 6 5
15 15 16 13 14 13 12 8 11 9 15 23 23 24 22 21 20 18 17 17 15 13 14 16 14 13 13 11 13 12 13 12 12 10 12 8 6 6 5 6 7 6 4 4 3 8 4 4 1
8 13 19 15 14 14 13 10 16 16 9 16 24 25 24 22 21 19 18 16 15 14 13 11 15 15 14 11 13 12 13 12 12 11 8 9 6 5 11 4 5 7 4 9 3 1 6 4 2
13 3 20 11 16 5 11 16 20 20 23 19 21 25 24 22 23 20 19 18 16 14 13 13 12 14 14 10 11 11 12 11 12 10 10 8 7 6 6 8 6 7 5 4 0 2 3 4 2
16 4 17 19 19 14 14 10 20 22 20 22 19 26 26 27 26 22 22 19 17 16 14 14 11 14 14 10 8 10 10 8 9 7 9 10 8 8 5 7 5 7 8 5 3 2 3 4 3
16 4 14 23 23 9 21 4 15 18 19 22 19 27 25 26 22 29 23 20 20 15 13 14 13 12 13 13 10 12 10 9 9 7 9 9 9 9 7 6 8 12 6 4 2 2 5 4 4
2 11 16 33 14 9 17 6 11 20 20 23 27 29 31 26 34 28 23 23 19 17 15 13 14 11 14 12 15 10 8 6 6 8 9 12 12 9 9 8 7 10 5 8 2 3 2 1 3
4 10 7 8 5 11 13 7 13 16 25 26 35 36 37 39 26 30 24 26 21 18 16 15 15 13 12 12 10 10 8 7 7 9 6 7 6 9 11 9 9 9 7 5 5 4 5 1 2
10 12 5 7 7 3 22 11 9 24 31 33 26 34 29 30 31 28 24 26 24 22 18 17 17 16 14 12 11 9 8 6 6 8 7 8 8 9 13 11 13 9 11 7 6 7 6 5 2
17 13 7 9 10 10 10 6 11 21 34 32 32 30 27 25 28 29 28 28 20 25 19 18 18 17 15 14 13 10 9 6 7 7 7 7 8 10 12 11 10 8 10 9 9 6 6 7 5
16 16 18 14 18 4 9 9 11 12 22 23 32 35 33 30 27 28 29 26 21 24 22 19 18 17 16 13 14 13 11 9 8 9 8 8 9 10 11 12 10 10 10 10 9 7 9 5 9
17 17 16 11 19 15 12 9 12 17 17 17 25 36 39 35 26 29 29 25 25 22 27 20 18 19 17 15 11 10 10 9 9 7 9 10 10 10 13 11 11 11 10 9 10 9 11 10 9
13 14 16 16 16 7 8 3 2 20 18 19 25 30 32 20 26 19 26 27 26 27 19 23 20 18 18 17 15 13 11 9 9 8 8 8 12 16 14 12 12 11 11 10 11 13 6 9 9
18 18 15 12 20 14 4 5 4 6 14 22 19 26 31 34 34 16 18 19 24 14 22 23 24 18 17 16 15 14 13 11 10 10 9 8 9 13 13 13 13 13 12 11 11 10 10 11 10
Wind_Direction
151 348 296 261 251 230 153 82 117 116 104 103 92 69 71 36 53 98 136 136 134 135 132 123 122 117 112 109 106 101 97 91 89 92 93 91 93 93 96 101 97 97 96 90 89 83 85 84 84
128 240 302 258 259 163 114 122 120 108 117 106 104 102 74 59 102 121 127 135 134 129 128 126 120 114 115 112 105 98 94 90 86 94 98 94 97 95 96 102 98 95 92 89 85 84 87 82 83
131 236 267 257 251 281 111 127 106 117 117 98 95 59 44 106 118 124 133 134 130 136 134 133 124 120 113 107 105 101 100 94 91 95 97 99 100 99 97 97 99 95 90 88 85 86 81 83 84
243 277 296 294 144 132 124 120 125 131 93 88 108 83 104 111 121 132 134 135 144 125 136 131 126 123 123 118 112 110 101 100 96 95 98 97 103 104 101 97 95 92 90 87 84 85 81 86 85
303 277 147 215 116 75 114 125 132 130 114 127 95 110 113 113 129 132 135 137 135 132 130 130 126 117 114 112 109 116 114 106 104 101 99 100 104 107 104 95 93 93 90 87 85 85 82 83 84
286 279 146 162 128 122 66 130 152 125 105 98 109 122 113 131 135 136 137 136 131 136 135 123 123 120 118 120 112 114 115 112 109 108 99 101 111 108 106 97 96 94 88 83 82 82 82 81 84
262 213 224 130 145 124 100 4 171 126 145 123 126 120 131 140 141 139 136 128 126 136 127 126 119 121 118 120 115 116 113 116 118 116 106 104 114 113 109 99 100 92 85 82 82 81 81 81 81
235 299 195 151 184 114 128 159 142 113 98 131 132 133 149 146 147 142 140 128 142 119 128 134 132 118 106 107 120 121 122 119 119 117 107 101 101 105 96 98 103 90 87 85 80 76 73 73 77
269 261 255 176 169 126 157 130 70 108 132 155 119 140 145 146 149 148 144 143 142 140 134 142 103 125 138 112 114 112 115 113 109 114 106 93 98 103 104 117 103 92 83 78 72 72 68 71 63
209 291 2 349 144 157 152 153 153 153 152 137 125 133 145 147 151 152 153 147 151 145 138 138 134 141 122 119 121 111 100 114 122 119 97 112 120 118 122 112 104 93 80 69 64 64 61 64 39
234 355 34 93 122 137 131 153 164 140 174 153 140 147 151 149 152 151 149 152 145 153 130 126 121 135 117 129 104 116 109 111 126 113 115 119 110 103 112 101 81 76 48 56 42 25 68 87 79
196 262 37 102 130 132 137 120 101 139 176 145 149 152 152 153 155 154 152 151 149 148 134 132 144 146 127 128 107 127 131 134 127 138 116 111 111 119 121 121 117 99 96 75 69 68 94 87 79
141 84 95 122 123 126 125 78 142 144 144 147 150 155 156 156 156 154 151 150 153 152 146 144 144 144 139 122 128 129 132 134 137 123 131 117 124 121 121 128 109 113 106 84 78 80 85 91 86
156 104 116 121 112 102 135 86 251 127 161 151 155 160 160 157 157 152 153 153 155 154 150 145 148 133 155 128 128 128 133 133 131 138 131 122 125 124 122 111 102 113 74 82 85 100 85 92 86
166 124 125 128 113 93 128 59 143 147 149 152 158 163 161 160 157 158 156 156 158 159 158 151 147 149 163 132 128 127 133 133 135 142 126 130 125 129 128 126 117 89 76 75 66 83 88 84 83
190 165 158 133 145 143 265 165 271 154 156 158 162 164 162 162 161 162 161 158 159 157 157 152 153 152 135 135 133 132 135 138 142 137 135 141 146 135 106 103 99 117 82 90 83 92 90 94 100
209 228 125 144 176 148 209 149 220 166 166 165 168 164 164 163 162 163 161 160 160 157 157 154 155 154 147 152 137 142 140 140 143 144 148 149 133 133 103 121 133 98 81 104 95 93 85 103 117
196 208 147 139 183 172 197 150 175 200 189 174 174 168 166 165 164 163 161 159 158 156 168 151 158 156 155 156 144 146 145 149 151 152 162 139 153 138 147 133 128 119 119 120 78 81 86 87 92
275 252 130 147 158 173 201 189 180 190 218 219 183 177 176 171 160 165 159 160 161 164 172 159 161 159 161 154 149 153 147 153 160 159 168 166 163 167 141 150 139 121 46 91 121 109 47 99 84
251 252 107 130 131 112 172 189 181 186 204 218 180 199 174 169 156 168 163 165 164 167 173 181 181 169 166 165 161 162 162 161 157 181 173 167 176 176 165 130 161 170 106 132 98 103 100 88 2
244 257 147 161 170 213 189 196 178 191 216 236 229 214 182 159 166 175 173 174 164 172 179 185 193 177 170 179 161 153 151 164 155 172 176 186 178 182 169 168 155 160 148 163 112 119 73 107 65
229 220 108 162 159 183 193 158 181 167 200 232 240 208 199 170 184 172 182 176 177 174 180 185 192 192 185 172 165 177 156 165 183 181 185 191 188 186 185 201 188 170 227 135 132 156 118 353 109
266 250 130 243 146 88 198 240 142 166 187 217 236 190 220 180 194 187 178 176 178 177 180 182 184 195 181 199 176 157 164 172 167 177 182 199 203 186 191 204 195 181 156 215 153 161 140 351 53
58 245 220 276 187 214 160 187 169 174 185 209 214 201 193 198 196 176 185 175 174 179 180 179 184 186 186 187 177 182 186 162 150 184 176 174 189 199 196 204 204 204 194 191 192 202 183 66 158
215 220 182 227 214 228 164 210 160 182 189 191 191 200 202 195 187 176 179 183 170 173 182 177 182 185 181 180 186 178 173 173 172 181 161 177 186 198 212 200 215 211 192 205 201 218 201 202 207
212 214 209 207 219 178 143 213 134 179 175 192 193 192 199 210 197 184 181 174 175 189 179 180 180 185 183 181 192 194 197 174 183 187 190 178 197 194 226 205 213 191 217 210 231 222 215 229 227
200 220 243 269 278 174 253 108 124 152 157 175 183 184 203 206 211 190 178 175 184 183 181 180 183 185 184 191 189 192 201 190 181 192 198 210 176 199 225 193 192 199 214 216 234 219 237 228 229
259 210 233 231 265 270 143 219 140 166 182 178 180 187 191 200 217 192 178 179 191 187 178 185 183 185 183 189 197 194 192 207 201 209 195 212 200 210 221 196 204 208 220 221 226 227 246 229 221
211 245 230 242 247 261 263 139 231 161 173 178 182 187 186 191 200 235 188 170 182 181 183 181 185 185 184 188 198 189 201 205 214 215 216 218 218 204 206 202 206 208 217 221 230 199 214 227 237
223 218 237 238 236 269 286 247 359 65 153 166 169 169 182 177 175 217 189 196 173 179 184 186 195 189 190 192 199 195 193 202 210 217 226 222 218 205 203 201 208 197 211 222 223 227 223 234 234
Height
1513 1514 1516 1516 1521 1509 1498 1496 1487 1493 1496 1498 1500 1501 1511 1518 1517 1532 1542 1547 1552 1555 1555 1557 1558 1559 1560 1561 1563 1563 1564 1565 1565 1565 1566 1566 1566 1566 1567 1568 1569 1569 1569 1569 1569 1570 1571 1571 1571
1516 1518 1517 1515 1517 1514 1504 1490 1497 1496 1501 1506 1507 1511 1515 1524 1527 1534 1543 1550 1554 1557 1560 1560 1559 1561 1562 1563 1564 1565 1566 1567 1567 1568 1568 1568 1568 1569 1570 1571 1572 1572 1572 1572 1573 1573 1574 1574 1573
1515 1517 1517 1513 1514 1518 1504 1491 1495 1502 1507 1508 1510 1516 1523 1531 1535 1538 1546 1550 1554 1557 1560 1560 1561 1563 1563 1565 1566 1567 1568 1569 1569 1570 1571 1570 1571 1572 1574 1574 1575 1575 1576 1576 1576 1576 1577 1576 1577
1517 1517 1514 1516 1511 1502 1494 1494 1500 1504 1509 1512 1517 1526 1533 1536 1538 1543 1548 1551 1555 1560 1561 1561 1563 1564 1565 1567 1568 1569 1570 1571 1572 1572 1573 1574 1574 1576 1577 1578 1578 1579 1580 1579 1579 1579 1580 1579 1579
1517 1516 1514 1515 1512 1500 1490 1498 1502 1506 1511 1515 1518 1528 1534 1540 1542 1547 1550 1554 1556 1561 1563 1563 1565 1566 1567 1568 1570 1571 1572 1573 1574 1575 1575 1576 1577 1579 1580 1581 1581 1581 1583 1582 1582 1582 1582 1582 1582
1517 1514 1514 1517 1514 1509 1503 1502 1505 1505 1514 1521 1525 1531 1537 1543 1546 1550 1553 1555 1558 1562 1565 1566 1566 1568 1569 1570 1571 1572 1574 1575 1576 1577 1578 1579 1580 1581 1582 1583 1584 1585 1586 1585 1584 1584 1584 1584 1585
1514 1513 1512 1511 1511 1518 1517 1512 1508 1509 1516 1519 1526 1532 1540 1544 1548 1551 1555 1557 1561 1562 1566 1569 1570 1570 1571 1572 1573 1575 1576 1577 1579 1580 1581 1582 1583 1584 1585 1587 1587 1588 1588 1588 1588 1588 1588 1588 1588
1513 1512 1510 1509 1514 1522 1521 1517 1514 1515 1518 1522 1526 1535 1538 1544 1549 1552 1557 1560 1563 1565 1568 1571 1573 1574 1574 1574 1574 1576 1577 1579 1581 1582 1584 1585 1585 1587 1588 1589 1591 1591 1591 1591 1592 1591 1591 1591 1591
1510 1513 1511 1511 1517 1520 1520 1519 1516 1520 1523 1523 1526 1532 1539 1545 1549 1553 1558 1563 1565 1567 1569 1572 1573 1573 1576 1578 1577 1579 1580 1581 1583 1585 1587 1587 1592 1593 1590 1593 1593 1594 1594 1594 1595 1595 1594 1594 1595
1510 1511 1506 1506 1509 1516 1518 1520 1520 1521 1523 1526 1527 1537 1543 1546 1550 1553 1557 1562 1566 1568 1571 1573 1574 1576 1577 1580 1580 1583 1582 1586 1587 1589 1590 1592 1591 1594 1596 1595 1596 1597 1597 1598 1598 1597 1596 1596 1598
1504 1510 1504 1508 1513 1518 1521 1521 1519 1520 1524 1525 1531 1538 1544 1547 1551 1555 1559 1563 1566 1569 1570 1572 1574 1577 1580 1581 1582 1585 1586 1588 1589 1591 1592 1594 1596 1597 1599 1598 1599 1599 1600 1600 1600 1599 1601 1601 1602
1504 1502 1502 1515 1517 1521 1522 1518 1516 1522 1523 1527 1534 1540 1544 1548 1552 1556 1560 1563 1568 1571 1573 1575 1578 1578 1582 1584 1583 1586 1588 1590 1592 1594 1594 1596 1597 1600 1600 1601 1602 1603 1603 1603 1603 1603 1603 1604 1604
1503 1501 1510 1516 1522 1524 1524 1525 1524 1523 1526 1530 1536 1542 1546 1549 1553 1557 1560 1564 1568 1571 1574 1577 1579 1580 1582 1583 1587 1588 1589 1591 1592 1595 1596 1597 1600 1601 1602 1602 1603 1604 1604 1605 1605 1605 1606 1606 1606
1497 1504 1512 1520 1525 1528 1527 1530 1524 1525 1528 1532 1538 1543 1546 1550 1553 1557 1562 1566 1569 1572 1575 1577 1580 1582 1583 1585 1588 1589 1590 1592 1595 1597 1599 1600 1601 1602 1604 1604 1606 1605 1604 1605 1607 1606 1608 1608 1608
1495 1507 1514 1523 1529 1533 1532 1533 1526 1527 1530 1534 1539 1543 1546 1551 1554 1559 1563 1567 1570 1573 1575 1579 1581 1583 1583 1585 1588 1591 1593 1595 1597 1597 1600 1601 1602 1602 1605 1606 1605 1607 1607 1607 1608 1608 1608 1610 1610
1492 1492 1515 1529 1531 1534 1535 1544 1535 1530 1532 1536 1540 1543 1547 1552 1556 1560 1564 1567 1571 1573 1576 1579 1581 1584 1585 1588 1590 1592 1594 1596 1597 1600 1602 1603 1603 1604 1605 1607 1607 1609 1609 1610 1610 1610 1611 1611 1611
1485 1494 1510 1532 1532 1533 1539 1542 1535 1532 1534 1536 1539 1543 1547 1552 1557 1561 1564 1568 1571 1574 1577 1579 1582 1584 1586 1589 1591 1593 1594 1597 1599 1601 1603 1604 1604 1605 1606 1609 1609 1608 1611 1611 1611 1612 1612 1612 1612
1483 1482 1497 1520 1530 1534 1536 1539 1538 1535 1534 1535 1538 1542 1546 1551 1556 1561 1564 1568 1572 1575 1578 1580 1583 1585 1587 1590 1592 1594 1595 1598 1600 1602 1601 1604 1606 1607 1606 1610 1611 1609 1614 1612 1612 1612 1612 1613 1611
1471 1471 1494 1511 1517 1532 1534 1538 1536 1537 1538 1536 1536 1540 1543 1548 1554 1560 1564 1568 1572 1576 1578 1579 1582 1586 1588 1589 1592 1594 1596 1598 1601 1603 1602 1605 1607 1608 1609 1611 1611 1611 1610 1613 1615 1614 1614 1615 1614
1476 1470 1507 1517 1526 1534 1535 1533 1535 1539 1538 1539 1537 1539 1542 1546 1553 1560 1564 1567 1572 1576 1579 1581 1583 1585 1587 1590 1591 1594 1596 1598 1600 1601 1604 1606 1607 1608 1610 1610 1612 1613 1614 1616 1615 1614 1616 1616 1615
1476 1478 1497 1509 1519 1528 1527 1529 1533 1539 1541 1542 1539 1541 1542 1545 1550 1558 1562 1566 1571 1575 1579 1582 1583 1585 1587 1590 1592 1594 1596 1598 1601 1601 1604 1605 1607 1609 1610 1611 1611 1613 1613 1616 1616 1616 1616 1617 1617
1479 1472 1495 1498 1507 1524 1509 1532 1528 1534 1540 1541 1542 1538 1539 1542 1549 1554 1559 1564 1567 1573 1578 1581 1584 1585 1587 1589 1593 1593 1597 1599 1600 1602 1604 1605 1607 1609 1610 1610 1611 1613 1613 1614 1617 1618 1616 1616 1617
1478 1474 1490 1499 1488 1521 1508 1514 1516 1529 1541 1537 1538 1538 1538 1542 1544 1546 1554 1561 1565 1570 1575 1580 1583 1586 1588 1588 1591 1594 1597 1599 1600 1601 1603 1605 1606 1608 1611 1611 1612 1613 1615 1616 1616 1618 1617 1617 1616
1476 1478 1472 1476 1478 1506 1494 1495 1517 1526 1528 1532 1529 1529 1529 1535 1536 1541 1550 1556 1563 1568 1573 1578 1582 1585 1587 1589 1591 1593 1596 1596 1598 1600 1603 1604 1605 1608 1609 1611 1612 1613 1614 1615 1617 1618 1618 1617 1618
1483 1481 1505 1506 1499 1493 1470 1476 1492 1500 1506 1510 1514 1520 1522 1525 1532 1538 1546 1553 1558 1563 1570 1575 1580 1584 1587 1589 1592 1593 1595 1597 1598 1599 1601 1604 1605 1607 1608 1610 1611 1613 1613 1616 1617 1617 1619 1619 1620
1482 1482 1497 1514 1491 1474 1462 1480 1478 1479 1489 1504 1513 1518 1522 1526 1526 1533 1542 1550 1555 1560 1568 1573 1578 1582 1585 1588 1591 1593 1594 1596 1598 1599 1600 1603 1604 1606 1606 1609 1611 1612 1613 1615 1616 1617 1617 1619 1619
1478 1488 1471 1481 1465 1500 1492 1477 1472 1472 1484 1494 1504 1516 1523 1525 1526 1531 1538 1544 1555 1559 1566 1571 1576 1581 1584 1588 1589 1591 1593 1594 1597 1598 1600 1601 1602 1605 1604 1607 1608 1611 1613 1614 1615 1616 1616 1617 1618
1470 1470 1485 1477 1493 1483 1480 1507 1470 1476 1479 1486 1497 1504 1516 1523 1525 1529 1535 1541 1551 1556 1560 1569 1574 1578 1582 1586 1588 1590 1592 1593 1595 1597 1598 1599 1601 1603 1603 1605 1607 1609 1611 1612 1613 1615 1615 1616 1617
1478 1476 1471 1465 1459 1481 1472 1485 1460 1460 1471 1480 1488 1498 1510 1522 1525 1531 1534 1536 1542 1551 1557 1566 1572 1576 1580 1583 1586 1589 1591 1593 1594 1596 1596 1598 1598 1600 1602 1603 1605 1607 1609 1611 1611 1611 1613 1614 1616
1463 1469 1466 1478 1483 1458 1469 1496 1471 1467 1470 1479 1487 1495 1508 1521 1528 1527 1534 1534 1538 1546 1556 1564 1569 1574 1578 1581 1583 1586 1589 1591 1593 1594 1596 1596 1596 1598 1600 1601 1603 1605 1607 1608 1609 1610 1613 1612 1614